Washington, NC

7:13 AM EST on February 11, 2016 (GMT -0500)
Warren

Weather History for KOCW - September, 2013

Change the Weather History Date:

Sunday, September 22, 2013

  Actual Average (KEWN) Record (KEWN)
Temperature  
Mean Temperature 67 °F 72 °F  
Max Temperature 73 °F 81 °F 92 °F (1980)
Min Temperature 60 °F 63 °F 48 °F (1983)
Degree Days  
Heating Degree Days 0 0  
Month to date heating degree days 0  
Since 1 July heating degree days 0  
Cooling Degree Days 2 8  
Month to date cooling degree days 223  
Year to date cooling degree days 1752  
Growing Degree Days 17 (Base 50)    
Moisture  
Dew Point 64 °F    
Average Humidity 84    
Maximum Humidity 85    
Minimum Humidity 82    
Precipitation  
Precipitation 0.00 in 0.18 in 4.34 in (1952)
Month to date precipitation 4.42  
Year to date precipitation 41.22  
Snow  
Snow 0.00 in - - ()
Month to date snowfall  
Since 1 July snowfall  
Snow Depth -    
Sea Level Pressure  
Sea Level Pressure 29.77 in    
Wind  
Wind Speed 4 mph (NNE)    
Max Wind Speed 13 mph    
Max Gust Speed 21 mph    
Visibility 8 miles    
Events      
T = Trace of Precipitation, MM = Missing Value Source: NWS Daily Summary

Daily Weather History Graph

Daily Weather History Graph

Search for Another Location

Airport or City:

Trip Planner

Search our weather history database for the weather conditions in past years. The results will help you decide how hot, cold, wet, or windy it might be!

Date:

Astronomy

Sep. 22, 2013 Rise Set
Actual Time 6:56 AM EDT 7:04 PM EDT
Civil Twilight 6:30 AM EDT 7:30 PM EDT
Nautical Twilight 6:01 AM EDT 7:59 PM EDT
Astronomical Twilight 5:31 AM EDT 8:29 PM EDT
Moon 9:01 PM EDT (9/22) 10:06 AM EDT (9/22)
Length of Visible Light 12h 59m
Length of Day
12h 08m
Waning Gibbous, 89% of the Moon is Illuminated
Sep 22
Waning Gibbous
Sep 26
Last Quarter
Oct 4
New
Oct 11
First Quarter
Oct 18
Full

Hourly Weather History & Observations

Time (EDT) Temp. Dew Point Humidity Pressure Visibility Wind Dir Wind Speed Gust Speed Precip Events Conditions
12:15 AM 73.0 °F 68.0 °F 84% 29.76 in 10.0 mi South 3.5 mph - N/A   Mostly Cloudy
12:35 AM 73.0 °F 68.0 °F 84% 29.75 in 10.0 mi SSW 3.5 mph - N/A   Mostly Cloudy
12:55 AM 73.0 °F 68.0 °F 84% 29.75 in 10.0 mi Calm Calm - N/A   Scattered Clouds
1:15 AM 73.0 °F 68.0 °F 84% 29.76 in 10.0 mi Calm Calm - N/A   Mostly Cloudy
1:35 AM 73.0 °F 68.0 °F 84% 29.76 in 10.0 mi Calm Calm - N/A   Mostly Cloudy
1:55 AM 73.0 °F 68.0 °F 84% 29.75 in 7.0 mi Calm Calm - N/A   Mostly Cloudy
2:15 AM 73.0 °F 68.2 °F 85% 29.75 in 3.0 mi Calm Calm - N/A   Overcast
2:35 AM 73.0 °F 68.0 °F 84% 29.74 in 7.0 mi Calm Calm - N/A   Mostly Cloudy
2:55 AM 73.0 °F 68.0 °F 84% 29.74 in 7.0 mi Calm Calm - N/A   Scattered Clouds
3:15 AM 73.0 °F 68.2 °F 85% 29.74 in 7.0 mi Calm Calm - N/A   Scattered Clouds
3:35 AM 73.0 °F 68.0 °F 84% 29.74 in 7.0 mi Calm Calm - N/A   Scattered Clouds
3:55 AM 73.0 °F 68.2 °F 85% 29.73 in 7.0 mi Calm Calm - N/A   Scattered Clouds
4:15 AM 73.0 °F 68.2 °F 85% 29.73 in 7.0 mi Calm Calm - N/A   Mostly Cloudy
4:35 AM 73.0 °F 68.2 °F 85% 29.72 in 5.0 mi Calm Calm - N/A   Scattered Clouds
4:55 AM 73.0 °F 68.2 °F 85% 29.73 in 5.0 mi Calm Calm - N/A   Mostly Cloudy
5:15 AM 73.0 °F 68.2 °F 85% 29.73 in 4.0 mi Calm Calm - N/A   Overcast
5:35 AM 72.9 °F 68.0 °F 85% 29.73 in 5.0 mi East 3.5 mph - N/A   Overcast
5:55 AM 70.9 °F 66.0 °F 85% 29.73 in 5.0 mi East 4.6 mph - N/A   Overcast
6:15 AM 70.7 °F 65.7 °F 84% 29.73 in 7.0 mi NE 5.8 mph - N/A   Overcast
6:35 AM 70.7 °F 65.7 °F 84% 29.73 in 7.0 mi NE 4.6 mph - N/A   Overcast
6:55 AM 70.7 °F 65.7 °F 84% 29.73 in 7.0 mi East 3.5 mph - N/A   Overcast
7:15 AM 68.5 °F 63.9 °F 85% 29.75 in 4.0 mi ESE 5.8 mph - N/A   Overcast
7:35 AM 68.0 °F 63.5 °F 85% 29.74 in 5.0 mi ENE 5.8 mph - N/A   Overcast
7:55 AM 68.0 °F 63.5 °F 85% 29.74 in 5.0 mi ENE 5.8 mph - N/A   Overcast
8:15 AM 68.0 °F 63.5 °F 85% 29.74 in 4.0 mi NE 5.8 mph - N/A   Overcast
8:35 AM 67.1 °F 62.2 °F 84% 29.74 in 5.0 mi NE 9.2 mph - N/A   Overcast
8:55 AM 67.5 °F 62.8 °F 85% 29.75 in 7.0 mi NE 4.6 mph - N/A   Overcast
9:15 AM 67.1 °F 62.4 °F 85% 29.75 in 4.0 mi NE 4.6 mph - N/A   Overcast
9:35 AM 67.5 °F 62.8 °F 85% 29.73 in 2.5 mi East 6.9 mph - N/A   Overcast
9:55 AM 68.0 °F 63.3 °F 85% 29.76 in 7.0 mi NNW 6.9 mph - N/A   Overcast
10:15 AM 68.0 °F 63.5 °F 85% 29.77 in 5.0 mi North 10.4 mph - N/A   Overcast
10:35 AM 68.0 °F 63.5 °F 85% 29.76 in 4.0 mi NE 8.1 mph - N/A   Overcast
10:55 AM 68.0 °F 63.5 °F 85% 29.77 in 5.0 mi NNE 8.1 mph - N/A   Overcast
11:15 AM 70.2 °F 65.3 °F 85% 29.77 in 5.0 mi North 9.2 mph - N/A   Overcast
11:35 AM 68.0 °F 63.5 °F 85% 29.76 in 7.0 mi NNE 9.2 mph - N/A   Overcast
11:55 AM 68.2 °F 63.7 °F 85% 29.77 in 7.0 mi NNE 9.2 mph - N/A   Overcast
12:15 PM 70.2 °F 65.3 °F 85% 29.76 in 10.0 mi NNE 9.2 mph - N/A   Overcast
12:35 PM 70.7 °F 65.7 °F 84% 29.76 in 10.0 mi NNE 11.5 mph - N/A   Overcast
12:55 PM 70.7 °F 65.7 °F 84% 29.76 in 10.0 mi North 10.4 mph - N/A   Overcast
1:15 PM 70.7 °F 65.7 °F 84% 29.76 in 7.0 mi NNE 10.4 mph - N/A   Overcast
1:35 PM 70.7 °F 65.7 °F 84% 29.76 in 7.0 mi NNE 9.2 mph - N/A   Overcast
1:55 PM 69.3 °F 64.4 °F 84% 29.76 in 10.0 mi NNE 12.7 mph 20.7 mph N/A   Overcast
2:15 PM 70.7 °F 65.7 °F 84% 29.76 in 10.0 mi North 9.2 mph 16.1 mph N/A   Overcast
2:35 PM 68.9 °F 64.0 °F 84% 29.75 in 7.0 mi North 11.5 mph 18.4 mph N/A   Overcast
2:55 PM 69.8 °F 64.9 °F 84% 29.75 in 7.0 mi North 8.1 mph - N/A   Overcast
3:15 PM 68.2 °F 63.5 °F 85% 29.75 in 5.0 mi North 11.5 mph 19.6 mph N/A   Overcast
3:35 PM 69.6 °F 64.8 °F 84% 29.75 in 10.0 mi NNE 9.2 mph - N/A   Mostly Cloudy
3:55 PM 70.7 °F 65.7 °F 84% 29.75 in 7.0 mi North 8.1 mph - N/A   Scattered Clouds
4:15 PM 68.5 °F 63.7 °F 84% 29.76 in 5.0 mi North 8.1 mph - N/A   Mostly Cloudy
4:35 PM 68.7 °F 63.9 °F 84% 29.76 in 4.0 mi North 6.9 mph - N/A   Overcast
4:55 PM 69.4 °F 64.6 °F 84% 29.76 in 7.0 mi NNE 8.1 mph - N/A   Overcast
5:15 PM 70.7 °F 65.7 °F 84% 29.76 in 10.0 mi North 10.4 mph - N/A   Overcast
5:35 PM 70.7 °F 65.7 °F 84% 29.77 in 10.0 mi North 9.2 mph - N/A   Mostly Cloudy
5:55 PM 70.7 °F 65.7 °F 84% 29.77 in 10.0 mi North 5.8 mph - N/A   Mostly Cloudy
6:15 PM 70.9 °F 65.8 °F 84% 29.78 in 10.0 mi North 8.1 mph - N/A   Scattered Clouds
6:35 PM 70.7 °F 65.3 °F 83% 29.79 in 10.0 mi North 6.9 mph - N/A   Mostly Cloudy
6:55 PM 70.7 °F 65.3 °F 83% 29.79 in 10.0 mi North 8.1 mph - N/A   Overcast
7:15 PM 70.7 °F 65.3 °F 83% 29.80 in 10.0 mi North 6.9 mph - N/A   Overcast
7:35 PM 68.5 °F 63.3 °F 83% 29.80 in 10.0 mi NNE 6.9 mph - N/A   Overcast
7:55 PM 68.0 °F 63.1 °F 84% 29.81 in 10.0 mi NNE 5.8 mph - N/A   Mostly Cloudy
8:15 PM 68.0 °F 62.8 °F 83% 29.81 in 10.0 mi North 5.8 mph - N/A   Mostly Cloudy
8:35 PM 68.0 °F 62.6 °F 83% 29.82 in 10.0 mi North 6.9 mph - N/A   Overcast
8:55 PM 66.7 °F 61.0 °F 82% 29.82 in 10.0 mi North 5.8 mph - N/A   Scattered Clouds
9:15 PM 65.5 °F 60.6 °F 84% 29.83 in 10.0 mi North 5.8 mph - N/A   Scattered Clouds
9:35 PM 65.5 °F 60.8 °F 85% 29.83 in 10.0 mi North 5.8 mph - N/A   Clear
9:55 PM 64.4 °F 59.5 °F 84% 29.84 in 10.0 mi North 4.6 mph - N/A   Scattered Clouds
10:15 PM 64.4 °F 59.5 °F 84% 29.85 in 10.0 mi North 6.9 mph - N/A   Scattered Clouds
10:35 PM 63.1 °F 58.5 °F 85% 29.86 in 10.0 mi North 5.8 mph - N/A   Clear
10:55 PM 63.0 °F 58.3 °F 85% 29.87 in 10.0 mi North 4.6 mph - N/A   Clear
11:15 PM 63.0 °F 58.3 °F 85% 29.87 in 10.0 mi North 4.6 mph - N/A   Clear
11:35 PM 61.0 °F 56.3 °F 85% 29.88 in 10.0 mi Calm Calm - N/A   Clear
11:55 PM 60.4 °F 55.8 °F 85% 29.88 in 10.0 mi North 3.5 mph - N/A   Clear